CAPE
2474 2532 2455 2364 2258 2071 1892 1902 1788 1820 1593 1415 1480 1245 1400 1093 894 1051 1247 1377 1429 1466 1347 1470 1350 1368 1166 1144 1080 986 681 509 551 535 604 574 692 994 1622 1633 1269 1252 1369 1303 1024 1056 1007 760 1230 1880 1618 1624 1682 1413 1130 1085 1018 1189 990 1287 949 794 756
2484 2560 2435 2232 2218 2187 2006 1948 1813 1746 1642 1423 1448 1470 1263 860 960 1100 1055 1147 1302 1590 1278 1216 1343 1239 1096 987 817 672 543 577 578 488 444 400 778 963 1664 1413 1540 1507 1382 1224 1156 1221 894 619 601 871 1341 1826 1692 1610 1306 1031 1378 911 1519 1060 1088 798 704
2484 2418 2480 2391 2252 2270 2064 1949 1884 1738 1627 1641 1464 1594 1363 1195 1150 1268 1214 1356 1386 1100 1158 1128 1078 1148 1118 944 772 627 575 616 422 422 369 306 569 913 1729 1814 1463 1390 1399 1251 694 843 876 681 834 848 1283 1104 1328 1454 1238 839 1050 1927 1368 1126 919 908 1077
2352 2373 2375 2418 2255 2355 2155 2062 1924 1805 1700 1625 1471 1421 1382 1329 1240 1282 1119 1056 916 1326 1244 1132 1091 1159 1147 949 680 579 475 637 782 540 610 625 851 1256 1858 1778 1511 1333 1155 982 930 865 886 792 675 570 850 1115 1499 1042 970 840 1105 1522 1522 1696 1476 1113 1226
2361 2223 2438 2278 2173 2114 2101 2139 2044 1962 1836 1714 1607 1481 1477 1377 1373 1092 912 920 966 1238 1250 1237 1131 1243 1158 796 762 631 699 1088 1317 1295 1483 1729 1635 1750 1671 1602 1324 1188 945 1040 1466 1418 1109 1024 1070 1030 306 986 989 688 702 540 982 1280 1268 1379 1399 1386 1205
2420 2338 2330 2253 2050 1958 1930 2071 2106 1976 1888 1768 1698 1630 1524 1469 1404 1424 1313 1232 1316 1189 1066 1195 1263 1211 1246 884 973 968 800 919 1011 997 892 1177 1550 1573 1450 1631 1458 1171 1138 1315 1515 1361 1540 1428 1063 772 760 841 794 478 470 652 1010 1342 1508 1366 1503 1587 1270
2474 2374 2221 2205 2181 1979 2033 2042 2070 1965 1819 1740 1716 1704 1589 1444 1481 1493 1496 1341 910 1001 1050 925 880 1011 784 704 1105 1227 1038 1091 1121 760 652 902 1284 1510 1525 1549 1527 1318 1263 1580 1282 1032 1419 1161 897 848 499 400 488 721 640 578 978 1146 973 1195 1194 1500 1391
2489 2352 2248 2269 2414 2190 2127 2162 2095 2029 1889 1743 1620 1694 1737 1598 1430 1357 1329 1327 1157 902 725 963 955 958 787 857 1142 1222 1243 1325 1325 1149 812 851 1202 1367 1463 1387 1374 1169 1066 1169 1089 816 1287 1135 1043 1138 660 285 249 454 475 375 692 1121 970 995 1309 1409 1486
2424 2369 2259 2214 2346 2608 2466 2208 2307 2212 2056 1926 1645 1612 1592 1466 1386 1319 1300 1384 1052 959 958 1066 1107 1170 974 969 1075 1080 1211 1357 1421 1304 974 871 1120 1197 1223 1372 1326 1007 959 817 701 816 1300 1474 1272 1227 816 394 338 213 300 360 402 668 852 1021 1206 1479 968
1477 2364 2286 2170 2145 2261 2520 2470 2374 2345 2210 2072 1835 1749 1520 1381 1336 1309 1170 1158 656 630 924 867 709 727 826 1032 1018 1074 1142 1336 1302 1285 1243 1207 1210 1158 1176 1282 1244 1010 1185 1102 966 1265 1093 1170 1040 1025 1168 448 167 313 193 279 389 598 616 890 1036 1143 624
808 1063 2049 2242 2287 2231 2231 2592 2469 2382 2263 2310 1954 1702 1651 1360 1278 1334 1134 918 834 923 840 789 670 478 707 805 790 1019 1196 1342 1235 895 975 880 659 918 1209 1200 1304 1101 1342 1444 1094 908 1024 1478 1279 1006 1051 942 417 288 356 370 466 919 867 1463 863 703 575
755 972 986 1607 2195 2131 2115 2182 2364 2328 2369 2256 2013 1919 1665 1409 1297 1238 1138 835 922 1058 904 627 534 437 646 488 614 936 1024 1128 704 590 648 727 608 408 907 1187 1274 1225 1317 1288 1061 1197 1188 1144 1104 1140 953 957 566 495 219 681 426 356 1248 664 1411 1040 696
703 640 861 766 747 1222 1922 1941 1986 2257 2287 2192 2029 1910 1480 1332 1093 1246 1149 1014 1252 1050 776 760 496 383 307 364 449 708 980 1031 711 512 464 598 377 581 1011 1157 1251 1168 1219 1125 1063 1034 1018 903 766 818 1148 832 544 720 779 375 287 384 663 559 1140 1435 774
863 851 787 793 751 854 904 1004 1826 2129 2221 2058 2038 1968 1762 1443 1131 1206 1143 1066 830 866 796 862 449 183 134 391 674 736 884 678 533 450 508 413 414 532 1156 1095 1056 1012 1005 1017 911 1067 934 1052 1080 1253 1337 972 579 515 592 445 496 596 793 1488 723 480 479
773 1004 912 796 705 650 808 941 885 1940 2016 1899 1673 1569 1717 1533 1277 1082 1162 1043 790 765 836 727 554 382 377 511 668 755 786 580 455 411 632 524 616 588 1109 1148 874 490 812 991 932 736 852 995 1048 1099 1137 698 356 214 509 330 650 433 350 1038 755 1211 782
877 819 944 927 858 748 756 872 822 1164 1257 1118 1208 1305 1538 1629 1284 1092 957 1064 854 780 765 727 917 724 547 646 656 595 835 833 733 752 888 814 763 1011 932 854 677 764 1286 1081 968 745 902 1103 1010 1112 868 567 702 413 390 680 982 806 538 755 978 756 656
607 727 780 917 868 832 743 783 853 932 905 930 827 954 1658 1796 1287 1113 964 765 971 828 901 910 865 892 677 676 574 682 801 732 756 807 654 467 600 966 786 547 815 1128 1409 1014 1050 1038 1129 1115 890 786 602 1027 392 264 531 641 454 1056 993 852 623 569 497
876 931 883 782 905 980 787 740 771 890 778 777 729 616 847 1418 1596 1188 1447 994 941 847 786 825 775 783 632 609 576 666 622 565 678 485 266 268 563 544 819 1005 1111 1166 1151 1130 1113 1033 1043 879 794 849 927 689 544 461 430 748 510 714 1094 870 686 1199 1105
860 942 946 958 887 941 933 857 756 665 760 838 752 684 511 1014 1326 1127 1113 925 975 1011 887 1079 926 744 745 779 702 742 816 622 619 387 252 415 628 879 964 980 1214 960 1293 1261 1302 1221 958 963 1049 1176 935 801 614 504 332 499 391 709 954 754 730 698 677
696 859 1191 1193 1136 1059 1027 1025 939 926 949 1023 1035 824 574 729 1013 1112 1163 1104 901 922 990 1054 947 1014 1010 981 860 928 800 574 542 607 800 887 1113 1063 939 1159 1294 1086 1269 1238 1440 1497 1274 1170 1310 771 914 685 704 314 335 536 551 639 662 834 736 662 522
944 828 857 981 1018 946 887 875 964 928 897 1030 947 843 738 525 838 1116 1027 1346 1060 902 1009 910 916 989 1141 839 978 1027 594 523 478 728 1080 849 1162 922 765 818 854 994 1240 1362 1456 1578 1398 1399 1346 1128 1104 909 794 518 386 483 433 530 586 683 785 643 675
552 823 681 820 896 897 736 739 760 755 712 809 1014 876 915 797 663 837 988 1024 979 746 674 882 904 1034 1076 1101 1195 1061 621 724 733 985 958 1002 1153 984 745 1047 1167 1204 1347 1606 1556 1469 1502 1608 1529 1376 1414 1161 838 696 513 439 375 549 646 999 842 640 627
684 675 474 582 660 683 678 689 642 589 614 685 768 698 560 645 657 690 830 691 811 1022 1172 1462 1164 874 879 1174 1073 988 845 984 1214 1180 1167 1445 1257 885 1069 1231 1194 1416 1513 1762 1560 1192 1136 1082 1295 1512 1495 1091 1022 701 426 476 564 376 557 794 797 616 536
74 68 417 639 544 595 712 646 547 596 569 498 250 626 604 765 689 699 625 572 602 587 474 616 557 643 799 1058 1065 1024 921 1073 1284 1236 1335 1132 867 896 1159 1475 1617 1849 1864 1885 1242 1021 1158 1230 1135 1135 1058 948 782 708 466 515 642 257 395 543 799 801 701
49 236 599 406 330 360 439 522 551 457 475 245 497 529 550 584 680 746 554 630 703 608 474 533 287 510 571 893 994 1326 1304 1544 1307 1484 1455 1415 1053 909 1504 1530 1713 1768 1765 1823 1256 1077 1179 1107 1102 1088 1080 1101 1064 863 728 499 822 453 478 512 525 824 782
250 90 145 79 626 557 82 437 436 544 450 512 495 677 623 728 658 526 535 539 686 459 250 432 385 415 386 402 410 1138 1333 1093 1052 987 765 1082 861 1468 1620 1665 1680 1861 1715 2006 1861 1379 1203 1020 1048 1032 981 787 595 893 1201 1256 922 506 451 501 436 514 747
276 20 53 15 171 478 311 60 320 523 434 435 431 572 633 588 700 691 638 564 514 413 214 327 760 528 435 538 760 946 809 747 745 742 490 558 709 1301 1637 1521 1896 1947 1821 1984 1683 1684 1541 1098 889 857 871 823 730 689 848 1063 956 698 769 953 751 608 553
27 37 27 76 64 151 617 571 449 584 653 672 544 554 617 668 758 801 632 641 562 501 627 941 954 1063 1113 807 896 932 672 758 717 772 615 406 310 623 1202 1229 1605 1809 1958 1968 1863 1726 1746 1731 1162 922 945 1058 1138 920 881 915 897 783 994 1475 1515 1322 1011
18 23 83 184 57 9 20 93 770 836 996 994 558 635 506 554 527 591 782 890 849 735 756 816 1041 1205 1206 1158 1083 649 643 844 742 685 620 715 520 338 315 723 778 617 1177 1274 1309 1546 1734 1558 1620 1502 1418 1453 1487 1426 1354 1220 1024 894 1134 1428 1350 1142 944
39 37 47 70 12 12 4 0 40 9 1076 946 917 843 512 615 647 632 681 808 852 788 683 752 932 1085 1165 1229 1141 1021 960 1093 834 1373 852 648 886 806 699 564 404 813 1212 1150 1379 1363 1486 1426 1339 1494 1386 1354 1358 1478 1246 1170 1008 1029 1089 1099 1113 1172 1080
23 8 36 10 7 17 22 0 0 2 0 11 687 988 1079 1088 956 863 880 799 688 831 744 782 954 1085 1245 1217 1160 1041 1043 1127 1268 1148 916 987 754 838 1088 1041 1106 1301 1212 1089 1373 1408 1311 1500 1132 1165 1066 1138 1407 1398 1514 1348 1149 1209 1150 1129 1138 1076 896
4 0 6 15 14 1 7 20 11 9 0 0 4 0 553 911 1021 932 800 874 883 795 785 747 820 920 950 1040 934 840 958 869 741 659 763 1026 1046 932 967 1209 1254 1183 1314 1273 1144 905 920 1149 1066 1079 952 1179 1282 1414 1570 1470 1468 1275 1005 988 1047 1140 1279
47 8 1 10 2 0 0 0 0 0 0 0 0 0 0 56 804 725 880 800 868 1066 893 688 588 661 717 798 786 657 779 740 596 768 810 812 786 1052 984 1134 1309 1255 1159 1238 1266 1282 888 848 1121 1021 1189 1175 1179 1253 1428 1214 1106 1030 908 848 952 1044 1164
3 6 0 0 0 8 6 0 0 0 0 0 0 0 0 0 231 724 827 724 1137 1180 978 528 617 546 485 410 414 414 415 470 593 684 678 612 581 687 727 777 862 969 1062 1099 1102 1032 640 389 816 1104 1142 1147 1130 1378 1155 1040 994 817 691 683 816 968 1014
13 11 0 0 0 0 0 0 0 0 0 0 0 0 0 0 2 5 0 0 463 1020 1189 444 307 26 0 0 0 0 359 463 464 532 587 607 622 633 705 879 751 792 884 990 869 458 475 400 653 992 1311 1306 1268 1114 957 987 841 790 798 908 989 965 1180
4 5 2 0 0 0 0 0 2 0 0 0 0 0 0 0 0 0 45 243 40 757 625 398 104 0 0 0 0 0 0 121 318 440 437 487 715 611 640 609 620 643 659 657 547 452 611 623 651 907 1093 1190 1248 926 826 896 860 763 717 835 1128 1119 1125
14 1 2 1 0 0 0 0 2 0 0 0 0 0 0 0 0 2 0 0 22 334 563 283 0 0 0 0 0 0 0 0 0 222 361 473 470 476 518 592 632 611 585 534 496 474 555 830 964 1096 1099 1033 878 933 1049 1170 966 839 863 784 972 1121 1081
Wind_Speed
21 21 21 19 19 20 22 23 21 20 21 21 20 18 18 17 15 13 12 11 10 10 8 9 12 14 15 16 16 17 17 15 16 13 13 13 9 9 12 14 12 12 11 9 11 11 12 13 12 12 13 13 14 12 9 9 9 10 9 9 11 4 3
22 21 22 20 19 19 22 23 22 21 19 20 21 19 18 17 16 15 14 13 12 12 9 9 10 12 12 14 15 16 13 13 16 17 15 12 7 9 14 13 14 13 13 12 12 12 11 14 11 12 13 13 12 9 10 13 11 9 8 12 9 7 3
21 22 24 23 22 21 20 23 23 21 19 18 19 20 18 17 17 16 15 14 13 14 11 10 9 9 10 12 13 15 15 16 17 19 17 14 11 10 13 14 14 14 13 14 13 12 11 11 13 13 13 10 9 8 10 11 7 10 9 10 9 8 4
21 22 24 25 24 23 20 21 23 22 20 18 18 18 19 18 17 17 16 13 11 11 14 12 11 10 12 13 14 15 14 15 19 18 16 14 10 11 14 14 13 13 11 11 12 11 11 12 12 11 12 11 9 9 11 9 8 9 8 7 6 5 5
20 22 23 25 27 24 22 20 20 21 21 20 19 18 18 19 18 18 17 14 13 13 13 13 12 13 13 13 14 15 14 15 17 17 16 15 14 14 14 13 13 13 11 10 12 12 12 11 13 15 13 12 10 10 12 10 8 8 7 7 6 7 6
20 21 22 23 26 24 21 20 19 19 21 21 21 20 19 19 18 19 18 16 15 14 13 14 13 14 16 15 14 15 15 15 16 16 16 16 15 13 13 13 14 13 11 12 12 12 11 13 14 15 14 12 11 8 10 10 9 7 7 7 8 8 6
23 21 22 23 25 23 20 18 18 17 18 20 21 21 21 20 18 20 20 18 17 15 14 14 12 13 18 16 14 15 15 16 18 16 15 15 14 13 14 13 13 13 12 13 13 12 10 12 12 13 15 14 11 10 12 11 8 8 8 8 10 6 6
26 24 22 23 25 24 20 18 17 17 16 17 18 21 23 21 20 19 20 19 17 16 15 14 13 14 17 16 14 14 16 18 19 18 16 14 13 13 13 13 14 14 12 13 13 11 9 10 11 12 15 15 11 11 12 11 8 8 9 10 8 6 5
26 25 24 25 26 26 22 18 17 18 16 16 17 20 22 22 21 20 20 19 17 15 15 15 15 16 18 17 15 16 16 18 18 17 16 14 13 13 13 14 15 12 12 11 12 10 9 11 12 13 15 14 12 11 11 9 8 7 8 8 7 7 4
27 23 24 26 27 26 24 20 18 17 16 16 17 19 21 22 21 21 21 21 18 15 14 14 16 17 16 16 15 15 16 17 18 18 17 15 14 13 14 12 11 12 12 13 11 10 10 11 12 13 13 14 9 10 10 8 7 6 8 7 8 5 5
32 27 24 26 29 28 26 23 21 18 16 17 18 19 20 22 21 20 22 23 19 15 14 15 17 18 17 15 13 13 16 18 19 22 21 21 18 14 12 12 11 11 13 13 14 13 11 11 12 13 14 13 12 11 10 9 8 7 10 8 8 7 6
39 34 31 30 30 29 27 26 23 21 19 18 19 20 20 20 21 20 21 23 20 17 14 14 17 17 18 16 12 12 15 17 18 18 19 19 15 13 11 11 11 11 12 14 15 14 14 12 13 12 12 14 14 10 11 13 11 8 12 8 9 9 7
44 41 40 39 35 29 27 28 25 22 20 19 20 21 19 19 20 20 21 24 23 19 15 14 16 17 17 15 13 12 14 16 18 20 20 18 15 13 11 11 11 12 14 16 15 13 13 13 12 11 10 15 14 8 11 13 11 10 13 9 9 10 8
46 43 39 40 40 39 36 32 27 25 23 20 21 20 19 18 19 18 21 23 24 21 18 16 16 16 16 14 13 12 13 17 20 20 17 14 12 11 11 11 11 12 14 14 13 13 13 13 13 13 13 18 15 10 14 14 13 14 15 11 11 10 6
45 43 44 43 41 35 34 32 27 26 24 22 21 20 19 19 17 18 18 20 23 23 20 19 18 15 15 14 14 13 12 15 17 17 15 13 11 12 13 11 8 11 14 15 13 12 12 13 15 15 15 18 14 13 14 13 12 14 12 13 11 12 8
41 41 44 47 43 37 36 36 32 31 30 27 22 20 19 20 18 18 17 19 20 23 23 21 20 18 16 15 14 13 14 15 14 13 14 15 15 15 16 13 10 13 16 15 13 12 13 13 16 16 18 16 15 15 13 11 14 16 15 14 14 11 10
43 43 43 46 45 42 42 39 36 34 36 33 25 21 21 23 24 18 17 18 19 21 22 23 22 19 17 15 13 14 15 14 13 13 15 17 15 15 15 13 12 16 17 14 13 14 15 16 17 18 18 19 21 15 14 14 13 14 18 18 13 11 11
42 41 41 43 44 45 42 40 39 36 36 35 31 27 24 24 24 20 19 19 18 19 19 21 22 21 19 16 15 15 13 12 13 14 15 14 14 13 12 13 14 16 15 13 13 14 15 16 16 17 17 20 19 15 17 15 19 18 18 18 15 14 17
44 40 40 40 40 43 42 40 39 38 37 35 36 32 27 23 25 21 19 19 20 19 18 20 20 21 20 18 16 15 14 14 14 14 12 11 13 13 14 14 14 14 15 14 14 14 15 15 15 16 18 20 18 18 17 16 16 18 22 20 17 20 20
48 43 41 41 39 41 43 45 44 38 36 36 39 38 27 26 26 23 21 19 20 20 19 19 18 19 19 18 17 16 15 14 13 13 12 11 14 14 14 14 14 15 16 15 16 16 16 16 15 19 18 18 20 20 20 17 15 19 19 17 18 20 18
51 46 41 41 41 41 42 43 38 33 37 37 36 35 30 26 25 25 23 22 23 20 19 19 18 18 19 19 17 16 15 13 12 12 13 12 13 14 14 14 14 14 17 18 17 18 18 18 19 19 17 21 23 22 18 18 19 20 20 17 17 21 18
52 50 45 42 41 41 42 42 39 38 36 37 38 36 34 31 30 29 25 24 22 16 18 19 20 20 20 19 18 17 14 13 12 12 11 11 13 14 14 14 15 16 17 17 17 17 18 19 20 19 20 23 26 23 19 19 21 19 19 19 22 24 18
54 52 48 42 39 40 41 41 39 40 39 40 43 39 38 33 34 36 35 30 32 32 27 25 23 21 22 22 21 20 16 14 13 13 12 12 15 15 14 16 16 12 14 14 16 21 21 19 22 22 20 25 25 23 20 16 19 19 21 22 21 20 18
nan nan 48 44 40 36 38 39 40 40 42 44 43 43 40 35 36 35 37 39 37 36 35 38 45 31 21 22 24 22 18 17 16 13 13 15 16 15 14 16 19 17 16 17 18 22 25 29 28 30 30 29 25 23 22 18 18 21 19 21 21 20 19
nan 52 48 46 42 39 39 39 38 37 43 46 45 45 43 40 38 36 36 34 32 33 36 39 38 38 36 28 25 24 22 20 21 18 16 17 14 12 14 17 19 18 18 18 20 22 25 28 30 30 31 32 35 34 27 22 18 20 22 23 22 20 19
49 nan 46 nan 45 42 nan 45 39 34 36 43 44 44 45 42 36 33 36 34 31 30 31 26 21 26 25 33 35 30 34 33 27 25 23 18 13 14 16 18 18 16 16 16 20 22 23 26 28 30 31 32 33 35 35 25 17 19 26 25 22 22 18
46 nan nan nan 46 47 43 nan 42 39 37 37 39 39 39 35 33 33 34 33 32 31 30 31 33 33 27 23 26 30 33 28 24 23 21 21 18 14 16 17 19 18 19 20 20 22 23 24 25 27 26 25 25 29 29 24 17 16 23 23 23 20 19
nan nan nan nan nan 44 42 40 42 42 39 40 38 36 37 36 35 34 33 32 33 34 32 29 30 31 34 29 27 25 25 19 19 23 18 19 23 25 21 19 19 19 23 23 22 23 24 23 24 25 25 23 22 22 23 21 18 18 21 22 23 23 23
nan nan nan 49 nan nan nan nan 38 39 39 41 40 36 34 38 36 35 31 31 35 35 34 33 33 32 31 30 23 22 22 23 25 19 20 26 28 24 24 28 28 30 31 30 28 26 25 26 25 25 22 21 19 19 19 19 18 16 18 19 21 22 22
nan nan nan nan nan nan nan nan nan nan 39 41 43 41 39 38 36 35 31 31 36 39 37 36 33 31 34 34 29 26 27 28 27 29 28 27 25 25 25 26 24 25 23 23 21 20 25 27 26 23 20 19 21 19 19 23 23 22 19 13 12 15 21
nan nan nan nan nan nan nan nan nan nan nan nan 44 44 44 43 42 40 37 35 38 39 39 38 37 34 35 37 35 31 32 32 32 33 32 29 26 25 23 22 22 22 24 29 23 20 22 27 24 21 17 22 19 16 17 19 19 21 25 24 16 11 14
nan nan nan nan nan nan nan nan nan nan nan nan nan nan 46 44 44 42 40 40 39 38 39 38 37 35 33 34 34 33 33 34 33 32 28 23 22 24 24 33 33 30 29 33 31 26 23 23 24 21 21 19 13 14 14 16 16 17 17 17 16 17 20
nan nan nan nan nan nan nan nan nan nan nan nan nan nan nan nan 42 42 41 40 40 40 41 40 39 38 34 33 32 35 37 36 33 27 26 29 27 28 30 28 31 37 37 35 33 33 29 23 22 20 20 18 14 12 16 15 14 15 15 15 16 14 15
nan nan nan nan nan nan nan nan nan nan nan nan nan nan nan nan 41 43 41 42 43 43 44 45 42 40 36 34 35 37 36 34 31 33 36 32 29 28 29 29 31 34 38 36 33 33 31 23 20 21 19 18 18 18 19 15 13 13 14 14 15 15 14
nan nan nan nan nan nan nan nan nan nan nan nan nan nan nan nan nan nan nan nan 49 49 47 48 44 nan nan nan nan nan 37 38 41 37 35 33 31 30 30 28 31 31 36 38 38 36 31 23 20 23 18 23 27 24 19 17 15 13 12 12 12 11 12
nan nan nan nan nan nan nan nan nan nan nan nan nan nan nan nan nan nan nan 48 nan 51 49 48 47 nan nan nan nan nan nan 42 41 38 36 33 33 32 33 34 31 32 33 35 37 37 34 31 28 21 19 21 22 21 20 19 18 15 11 8 8 8 9
nan nan nan nan nan nan nan nan nan nan nan nan nan nan nan nan nan nan nan nan nan 51 50 48 nan nan nan nan nan nan nan nan nan 37 35 33 32 32 33 33 29 27 30 32 35 36 36 32 26 18 18 25 19 19 20 21 19 16 12 9 8 7 6
Wind_Direction
311 311 318 320 322 328 337 337 325 323 335 341 339 341 330 316 308 305 302 293 280 272 274 276 272 261 254 246 243 240 233 229 235 229 217 212 228 240 251 254 253 258 259 253 253 264 271 269 257 259 268 272 269 268 281 275 274 292 301 278 278 318 68
306 306 304 309 315 320 333 334 329 322 325 332 336 340 337 329 321 318 312 300 289 278 274 271 267 263 259 252 245 240 235 230 234 243 241 228 222 236 249 244 251 256 258 257 256 260 267 269 260 262 260 260 268 274 275 269 272 286 278 285 293 317 27
302 301 301 305 310 312 322 330 332 325 318 319 328 335 337 336 329 321 313 301 293 289 289 284 281 268 247 242 241 238 234 238 235 239 249 241 219 234 244 248 257 258 258 260 258 264 252 253 254 251 258 261 261 249 256 263 260 263 277 275 298 320 329
302 299 297 300 303 305 313 321 329 328 317 312 316 323 332 336 329 314 310 298 287 288 288 288 286 271 248 242 242 244 241 241 239 239 241 250 240 228 241 251 258 263 262 258 268 275 266 260 264 259 256 258 258 267 260 260 243 255 267 276 277 281 282
291 293 296 296 298 304 310 315 320 323 320 309 305 311 320 329 326 321 319 312 301 299 291 282 281 275 266 254 246 245 237 233 237 239 235 239 236 230 238 246 248 253 250 244 242 257 268 263 265 262 259 254 247 249 256 245 244 260 259 262 267 269 267
282 287 291 293 291 296 303 308 311 318 317 311 304 305 311 321 323 321 321 314 303 301 298 292 280 278 271 260 249 246 240 234 235 238 231 228 232 234 238 241 244 246 247 248 246 248 252 256 262 257 255 253 252 254 259 253 250 254 254 259 266 267 263
273 279 282 286 285 286 291 298 300 303 309 313 308 306 303 310 312 315 317 316 309 304 300 298 289 274 266 258 249 248 248 237 235 238 231 224 223 228 232 234 239 242 241 247 248 249 258 264 261 262 259 246 237 244 247 246 244 251 239 252 254 254 268
260 266 272 275 274 278 281 287 289 288 292 301 306 302 302 302 304 306 308 312 316 311 306 301 293 282 270 266 260 258 251 244 239 237 230 224 218 226 227 230 236 237 236 241 248 254 258 264 264 262 265 264 245 242 247 235 223 220 240 259 268 266 260
248 252 258 265 265 263 268 273 277 278 280 283 293 297 301 300 296 295 301 304 310 309 308 303 297 281 272 271 269 262 254 243 238 236 228 220 215 222 226 228 229 232 236 242 249 252 254 260 268 257 260 270 261 253 241 226 221 216 224 255 261 268 242
225 241 249 256 260 258 259 264 264 270 272 273 281 288 295 297 289 285 288 290 300 307 309 304 300 290 279 273 271 264 251 243 235 229 226 219 217 221 226 230 228 229 230 237 241 249 249 267 275 267 258 267 262 259 263 239 227 232 234 226 247 246 230
221 216 234 245 251 254 255 256 260 263 268 267 273 279 288 295 291 283 275 280 287 295 305 302 300 300 289 275 272 260 247 241 235 226 219 219 211 211 222 229 229 226 230 236 240 242 255 266 275 265 257 256 272 276 268 256 246 247 251 220 224 247 247
233 222 219 226 241 248 249 251 254 257 259 262 265 273 282 291 292 282 270 273 278 285 291 298 300 302 293 277 274 264 251 245 238 228 220 218 209 201 211 227 232 229 232 240 244 248 250 258 266 257 252 256 246 235 261 242 252 238 232 239 212 246 264
239 238 230 222 221 230 240 243 245 250 253 257 262 270 275 287 292 285 268 266 274 281 284 287 296 296 290 278 274 269 254 242 236 230 222 217 206 200 209 223 233 235 236 242 244 245 250 252 256 256 248 259 263 252 246 251 254 250 237 233 236 238 257
242 242 243 242 234 227 225 227 235 239 243 249 257 264 270 278 290 289 277 266 270 277 283 283 285 289 296 293 278 269 256 242 239 235 230 222 210 204 220 228 231 241 243 248 247 245 246 251 255 251 246 251 259 258 255 258 258 242 230 225 239 242 229
248 243 242 244 249 248 247 250 241 240 244 244 245 253 264 261 275 285 279 273 271 275 282 282 284 288 292 296 286 265 256 250 245 243 240 236 225 221 232 237 234 246 245 248 244 246 248 250 254 252 249 256 260 259 262 263 253 252 246 229 237 233 225
258 255 246 241 241 243 246 252 258 253 246 239 232 236 247 255 260 270 274 272 270 272 277 279 282 289 294 298 294 277 259 254 252 247 247 243 236 233 238 233 234 245 246 246 246 248 253 254 253 252 252 259 264 260 260 243 248 259 259 242 239 244 228
253 256 254 247 242 241 242 244 248 260 261 249 236 225 232 245 248 255 260 268 270 269 274 272 276 282 289 293 293 281 267 260 255 248 247 243 234 232 238 236 234 245 250 249 250 254 253 254 252 251 253 251 250 238 238 242 245 250 255 249 239 248 232
254 254 255 252 245 239 240 243 244 249 261 260 241 223 224 237 244 246 251 258 264 270 272 273 273 273 279 283 284 274 272 266 256 251 249 247 245 242 239 241 241 247 254 251 250 255 257 258 258 255 252 247 252 253 241 236 249 230 237 251 251 232 222
257 257 255 254 247 240 239 242 243 242 250 255 250 236 222 228 239 241 248 256 262 267 271 268 268 268 273 272 271 273 268 264 262 258 252 250 254 254 242 240 238 245 256 251 246 248 253 258 254 254 248 252 256 256 249 248 251 245 225 231 246 236 217
254 254 252 252 249 241 239 241 239 240 245 246 250 247 232 218 231 240 246 251 259 266 267 267 262 260 264 267 266 269 267 266 262 254 250 249 249 251 243 236 235 232 247 248 246 246 246 246 245 246 247 255 254 245 244 240 241 243 247 235 231 231 232
250 253 253 250 248 249 249 245 247 246 244 241 246 246 239 229 226 231 236 243 246 246 258 262 259 254 252 254 255 257 263 261 258 251 250 249 247 247 240 229 231 230 239 245 245 245 245 245 242 248 245 251 252 243 237 243 238 241 254 245 235 245 213
246 248 250 251 250 250 251 244 237 240 240 240 241 237 231 225 215 221 227 232 239 245 246 249 251 248 244 244 247 248 254 255 254 257 256 247 247 247 240 234 232 232 242 249 257 249 251 250 247 248 247 250 250 242 230 229 239 238 242 242 238 242 234
240 243 247 250 250 247 248 248 240 236 240 239 241 244 241 234 226 216 214 217 219 217 224 236 241 249 242 235 237 235 238 241 249 253 248 242 239 239 233 236 239 244 246 255 258 247 252 252 245 245 246 251 256 251 243 231 237 234 238 243 242 245 249
nan nan 240 244 251 246 244 246 241 237 238 237 240 242 240 235 235 233 225 221 218 217 214 214 206 205 235 242 232 229 228 231 241 240 235 236 240 237 232 237 235 240 240 240 245 254 250 252 248 248 247 255 259 263 257 246 244 248 243 243 243 237 233
nan 237 240 241 243 248 245 241 240 235 238 238 237 232 226 222 224 221 228 233 234 232 226 222 217 209 192 195 215 227 223 225 226 225 229 233 238 242 241 241 235 232 233 235 238 242 246 249 250 248 249 247 246 242 253 261 253 253 248 243 242 240 238
239 nan 233 nan 248 249 nan 243 238 238 240 240 234 227 225 221 220 225 228 225 228 235 234 233 240 243 231 209 188 213 218 212 219 218 208 210 215 243 244 246 244 235 233 258 245 244 243 243 244 251 249 248 247 251 250 257 257 252 248 244 243 244 243
236 nan nan nan 228 236 237 nan 235 238 242 238 226 223 226 226 224 229 234 235 228 223 227 226 226 216 210 227 212 202 222 212 206 213 202 184 188 225 251 250 253 244 241 245 239 246 244 245 247 245 243 242 244 250 254 260 266 258 248 245 252 252 249
nan nan nan nan nan 221 224 228 228 235 238 230 223 227 234 229 226 229 235 234 230 229 226 232 226 220 204 192 228 206 216 221 218 211 197 205 204 193 207 236 249 249 252 249 244 243 242 243 246 244 243 244 244 251 253 253 244 242 241 244 253 254 255
nan nan nan 231 nan nan nan nan 230 236 237 234 232 241 242 233 228 231 232 230 231 226 224 230 237 238 226 207 204 226 207 214 223 211 209 213 216 204 196 201 215 226 225 226 221 235 235 239 240 241 245 247 245 246 254 259 274 255 242 239 246 252 251
nan nan nan nan nan nan nan nan nan nan 237 238 240 245 247 240 234 237 242 238 233 232 227 224 230 232 228 221 210 213 215 215 215 220 225 219 213 209 203 219 207 224 237 240 245 246 228 232 233 238 233 238 242 243 246 244 249 255 254 251 256 262 262
nan nan nan nan nan nan nan nan nan nan nan nan 241 245 244 243 240 241 244 240 235 236 234 232 237 235 229 222 217 215 214 213 216 218 220 214 212 214 212 229 236 233 232 235 248 247 241 244 241 238 241 241 242 244 249 255 255 252 251 241 225 230 265
nan nan nan nan nan nan nan nan nan nan nan nan nan nan 241 245 244 244 241 240 244 241 237 234 240 240 234 227 221 217 214 214 214 220 220 219 220 225 224 226 231 235 233 238 241 236 235 233 238 248 253 253 246 247 255 262 265 267 264 258 246 237 236
nan nan nan nan nan nan nan nan nan nan nan nan nan nan nan nan 247 245 245 241 238 238 237 236 240 241 233 230 224 221 217 216 217 215 216 218 219 224 228 228 231 230 233 239 241 240 232 215 222 229 248 264 267 254 251 254 255 260 263 270 266 258 253
nan nan nan nan nan nan nan nan nan nan nan nan nan nan nan nan 241 245 242 239 238 236 237 237 236 239 234 229 225 225 223 221 217 214 217 218 220 222 227 226 230 230 235 237 246 251 252 248 229 225 224 243 253 250 255 254 261 278 269 272 268 266 264
nan nan nan nan nan nan nan nan nan nan nan nan nan nan nan nan nan nan nan nan 233 234 237 241 235 nan nan nan nan nan 221 219 215 217 219 217 218 222 226 226 231 226 231 233 236 240 246 253 258 241 240 234 245 252 257 250 254 262 269 274 272 268 266
nan nan nan nan nan nan nan nan nan nan nan nan nan nan nan nan nan nan nan 232 nan 236 232 231 236 nan nan nan nan nan nan 220 215 214 214 219 223 226 224 230 232 233 233 235 236 243 248 246 240 245 246 248 258 270 264 258 256 251 250 268 280 285 281
nan nan nan nan nan nan nan nan nan nan nan nan nan nan nan nan nan nan nan nan nan 238 235 229 nan nan nan nan nan nan nan nan nan 208 213 218 223 226 228 230 230 230 234 237 241 243 250 248 247 258 257 255 253 256 255 258 260 264 266 265 267 264 265